Location: Freistadt
(48.5112°N, 14.5013°E)
Time: 09:04:13
(UTC+01:00)

N. Korean satellite - Pass Details

Date: 27 November 2022
Orbit: 407 x 442 km, 97.3° (Epoch: 04 February)

Event Time Altitude Azimuth Distance (km) Brightness Sun altitude
Rises 04:21:14 0° 30° (NNE) 2,531 10.6 -30.1°
Reaches altitude 10° 04:24:03 10° 55° (NE) 1,646 9.9 -29.7°
Maximum altitude 04:26:07 15° 91° (E) 1,371 9.7 -29.3°
Drops below altitude 10° 04:28:11 10° 127° (SE) 1,632 9.8 -29.0°
Sets 04:30:56 0° 152° (SSE) 2,495 10.5 -28.5°
